Tracking 19846 objects as of 19-Sep-2019
HD Live streaming from Space Station
objects crossing your sky now

SL-6 R/B(2)

Track SL-6 R/B(2) now!


NORAD ID: 11079
Int'l Code: 1978-095E
Perigee: 402.2 km
Apogee: 36,264.4 km
Inclination: 63.1 °
Period: 644.0 minutes
Semi major axis: 24704 km
RCS: 6.8174 m2 (large)
Launch date: October 13, 1978
Source: Commonwealth of Independent States (former USSR) (CIS)
Launch site: PLESETSK MISSILE AND SPACE COMPLEX (PKMTR)

Note: This is a ROCKET BODY
aabbcc
Your satellite tracking list
Your tracking list is empty




NASA's NSSDC Master Catalog

Two Line Element Set (TLE):
1 11079U 78095E   19261.44083589 -.00000001 +00000-0 -48234-4 0  9995
2 11079 063.1162 305.4382 7258277 278.5661 012.3744 02.23585741037476
Source of the keplerian elements: AFSPC